Kozani, Greece

3:52 AM EEST on May 23, 2017 (GMT +0300)
Kozani

Weather History for LGKZ - October, 2011

Change the Weather History Date:

Friday, October 14, 2011

  Actual Average Record
Temperature  
Mean Temperature 52 °F -  
Max Temperature 57 °F - - ()
Min Temperature 48 °F - - ()
Degree Days  
Heating Degree Days 12    
Growing Degree Days 2 (Base 50)    
Moisture  
Dew Point 40 °F    
Average Humidity 66    
Maximum Humidity 76    
Minimum Humidity 58    
Precipitation  
Precipitation 0.00 in - - ()
Sea Level Pressure  
Sea Level Pressure 30.11 in    
Wind  
Wind Speed 14 mph ()    
Max Wind Speed 23 mph    
Max Gust Speed 40 mph    
Visibility 6.2 miles    
Events      
T = Trace of Precipitation, MM = Missing Value Source: Averaged Metar Reports

Daily Weather History Graph

Daily Weather History Graph

Search for Another Location

Airport or City:

Trip Planner

Search our weather history database for the weather conditions in past years. The results will help you decide how hot, cold, wet, or windy it might be!

Date:

Astronomy

Oct. 14, 2011 Rise Set
Actual Time 7:41 AM EEST 6:55 PM EEST
Civil Twilight 7:14 AM EEST 7:22 PM EEST
Nautical Twilight 6:43 AM EEST 7:54 PM EEST
Astronomical Twilight 6:11 AM EEST 8:25 PM EEST
Moon 7:56 PM EEST (10/14) 9:53 AM EEST (10/14)
Length of Visible Light 12h 08m
Length of Day
11h 13m
Waning Gibbous, 95% of the Moon is Illuminated
Oct 14
Waning Gibbous
Oct 20
Last Quarter
Oct 26
New
Nov 2
First Quarter
Nov 10
Full

Hourly Weather History & Observations

Time (EEST) Temp. Dew Point Humidity Pressure Visibility Wind Dir Wind Speed Gust Speed Precip Events Conditions
12:20 AM 57.2 °F 46.4 °F 67% 30.06 in - NNW 16.1 mph - N/A   Unknown
12:50 AM 55.4 °F 44.6 °F 67% 30.06 in - NW 18.4 mph - N/A   Unknown
1:20 AM 55.4 °F 42.8 °F 63% 30.06 in - NNW 23.0 mph 40.3 mph N/A   Unknown
1:50 AM 55.4 °F 42.8 °F 63% 30.06 in - NNW 20.7 mph 32.2 mph N/A   Unknown
2:20 AM 53.6 °F 42.8 °F 67% 30.06 in - NW 20.7 mph - N/A   Unknown
2:50 AM 53.6 °F 41.0 °F 62% 30.06 in - NNW 17.3 mph 31.1 mph N/A   Unknown
3:20 AM 53.6 °F 41.0 °F 62% 30.06 in - NNW 17.3 mph 29.9 mph N/A   Unknown
3:50 AM 53.6 °F 41.0 °F 62% 30.09 in - NNW 9.2 mph - N/A   Unknown
4:20 AM 51.8 °F 42.8 °F 71% 30.09 in - NNW 12.7 mph - N/A   Unknown
4:50 AM 51.8 °F 42.8 °F 71% 30.09 in - NW 13.8 mph - N/A   Unknown
5:20 AM 51.8 °F 42.8 °F 71% 30.09 in - NNW 13.8 mph - N/A   Unknown
5:50 AM 50.0 °F 42.8 °F 76% 30.09 in - NW 13.8 mph - N/A   Unknown
6:20 AM 50.0 °F 42.8 °F 76% 30.09 in - NW 12.7 mph - N/A   Unknown
6:50 AM 50.0 °F 41.0 °F 71% 30.09 in - NW 15.0 mph - N/A   Unknown
7:20 AM 50.0 °F 41.0 °F 71% 30.09 in - NW 16.1 mph - N/A   Unknown
7:50 AM 50.0 °F 39.2 °F 66% 30.12 in - NW 17.3 mph - N/A   Unknown
8:20 AM 50.0 °F 39.2 °F 66% 30.12 in - NW 15.0 mph 26.5 mph N/A   Unknown
8:50 AM 48.2 °F 39.2 °F 71% 30.12 in 6.2 mi NNW 16.1 mph - N/A   Overcast
9:50 AM 48.2 °F 37.4 °F 66% 30.15 in 6.2 mi NNW 17.3 mph - N/A   Overcast
10:50 AM 50.0 °F 37.4 °F 62% 30.18 in 6.2 mi NNW 15.0 mph - N/A   Overcast
11:50 AM 50.0 °F 37.4 °F 62% 30.18 in 6.2 mi NNW 12.7 mph - N/A   Overcast
12:50 PM 50.0 °F 35.6 °F 58% 30.18 in 6.2 mi NNW 12.7 mph - N/A   Overcast
1:50 PM 50.0 °F 35.6 °F 58% 30.18 in 6.2 mi NNW 9.2 mph - N/A   Overcast
2:50 PM 50.0 °F 35.6 °F 58% 30.18 in 6.2 mi NNW 11.5 mph - N/A   Overcast
3:20 PM 50.0 °F 35.6 °F 58% 30.18 in - NW 9.2 mph - N/A   Unknown
3:50 PM 50.0 °F 35.6 °F 58% 30.18 in - North 8.1 mph - N/A   Unknown